Probability
0 0 0 0 0 0 0 0 0 0 0 0 0 0 0 0 0 0 0 0 0 0 0 0 0 0 0 0 0 0 0 0 0 0 0 0 0 0
0 0 0 0 0 0 0 0 0 0 0 0 0 0 0 0 0 0 0 0 0 0 0 0 0 0 0 0 0 0 0 0 0 0 0 0 0 0
0 0 0 0 0 0 0 0 0 0 0 0 0 0 0 0 0 0 0 0 0 0 0 0 0 0 0 0 0 0 0 0 0 0 0 0 0 0
0 0 0 0 0 0 0 0 0 0 0 0 0 0 0 0 0 0 0 0 0 0 0 0 0 0 0 0 0 0 0 0 0 0 0 0 0 0
0 0 0 0 0 0 0 0 0 0 0 0 0 0 0 0 0 0 0 0 0 0 0 0 0 0 0 0 0 0 0 0 0 0 0 0 0 0
0 0 0 0 0 0 0 0 0 0 0 0 0 0 0 0 0 0 0 0 0 0 0 0 0 0 0 0 0 0 0 0 0 0 0 0 0 0
0 0 0 0 0 0 0 0 0 0 0 0 0 0 0 0 0 0 0 0 0 0 0 0 0 0 0 0 0 0 0 0 0 0 0 0 0 0
0 0 0 0 0 0 0 0 0 0 0 0 0 0 0 0 0 0 0 0 0 0 0 0 0 0 0 0 0 0 0 0 0 0 0 0 0 0
0 0 0 0 0 0 0 0 0 0 0 0 0 0 0 0 0 0 0 0 0 0 0 0 0 0 0 0 0 0 0 0 0 0 0 0 0 0
0 0 0 0 0 0 0 0 0 0 0 0 0 0 0 0 0 0 0 0 0 0 0 0 0 0 0 0 0 0 0 0 0 0 0 0 0 0
0 0 0 0 0 0 0 0 0 0 0 0 0 0 0 0 0 0 0 0 0 0 0 0 0 0 0 0 0 0 0 0 0 0 0 0 0 0
0 0 0 0 0 0 0 0 0 0 0 0 0 0 0 0 0 0 0 0 0 0 0 0 0 0 0 0 0 0 0 0 0 0 0 0 0 0
0 0 0 0 0 0 0 0 0 0 0 0 0 0 0 0 0 0 0 0 0 0 0 0 0 0 0 0 0 0 0 0 0 0 0 0 0 0
0 0 0 0 0 0 0 0 0 0 0 0 0 0 0 0 0 0 0 0 0 0 0 0 0 0 0 0 0 0 0 0 0 0 0 0 0 0
0 0 0 0 0 0 0 0 0 0 0 0 0 0 0 0 0 0 0 0 0 0 0 0 0 0 0 0 0 0 0 0 0 0 0 0 0 0
0 0 0 0 0 0 0 0 0 0 0 0 0 0 0 0 0 0 0 0 0 0 0 0 0 0 0 0 0 0 0 0 0 0 0 0 0 0
0 0 0 0 0 0 0 0 0 0 0 0 0 0 0 0 0 0 0 0 0 0 0 0 0 0 0 0 0 0 0 0 0 0 0 0 0 0
0 0 0 0 0 0 0 0 0 0 0 0 0 0 0 0 0 0 0 0 0 0 0 0 0 0 0 0 0 0 0 0 0 0 0 0 0 0
0 0 0 0 0 0 0 0 0 0 0 0 0 0 0 0 0 0 0 0 0 0 0 0 0 0 0 0 0 0 0 0 0 0 0 0 0 0
0 0 0 0 0 0 0 0 0 0 0 0 0 0 0 0 0 0 0 0 0 0 0 0 0 0 0 0 0 0 0 0 0 0 0 0 0 0
0 0 0 0 0 0 0 0 0 0 0 0 0 0 0 0 0 0 0 0 0 0 0 0 0 0 0 0 0 0 0 0 0 0 0 0 0 0
0 0 0 0 0 0 0 0 0 0 0 0 0 0 0 0 0 0 0 0 0 0 0 0 0 0 0 0 0 0 0 0 0 0 0 0 0 0
0 0 0 0 0 0 0 0 0 0 0 0 0 0 0 0 0 0 0 0 0 0 0 0 0 0 0 0 0 0 0 0 0 0 0 0 0 0
Height
5663 5661 5658 5656 5654 5653 5651 5650 5648 5647 5646 5644 5643 5642 5641 5641 5641 5641 5641 5641 5642 5642 5643 5644 5645 5647 5648 5650 5652 5654 5657 5660 5662 5665 5668 5671 5674 5677
5654 5651 5648 5646 5644 5642 5640 5638 5636 5635 5634 5632 5631 5630 5629 5628 5628 5627 5627 5627 5627 5628 5629 5629 5631 5632 5633 5635 5637 5639 5642 5644 5647 5650 5653 5656 5660 5663
5644 5641 5639 5636 5634 5632 5629 5627 5625 5623 5621 5620 5618 5617 5616 5615 5615 5614 5613 5613 5613 5613 5614 5614 5615 5617 5618 5620 5621 5624 5626 5629 5631 5634 5637 5641 5644 5648
5635 5632 5629 5626 5623 5621 5618 5616 5614 5612 5610 5608 5606 5604 5603 5602 5601 5600 5599 5599 5598 5599 5599 5599 5600 5601 5602 5603 5605 5607 5609 5611 5614 5617 5621 5625 5628 5632
5625 5622 5619 5616 5613 5610 5607 5605 5602 5600 5598 5596 5594 5591 5590 5588 5587 5586 5585 5584 5583 5583 5583 5583 5584 5584 5585 5586 5587 5589 5592 5594 5597 5600 5603 5607 5611 5615
5615 5612 5609 5606 5602 5599 5596 5594 5591 5589 5586 5583 5581 5579 5577 5575 5573 5572 5571 5569 5568 5568 5567 5567 5567 5567 5568 5569 5570 5571 5573 5575 5578 5581 5584 5588 5592 5596
5605 5602 5598 5595 5592 5589 5586 5583 5580 5577 5574 5571 5569 5566 5563 5561 5559 5557 5556 5554 5553 5552 5551 5551 5551 5551 5550 5551 5551 5552 5554 5556 5558 5561 5565 5568 5572 5577
5594 5591 5587 5584 5581 5578 5574 5571 5568 5565 5561 5558 5555 5552 5549 5546 5544 5542 5541 5539 5538 5536 5535 5533 5532 5532 5531 5531 5531 5532 5533 5535 5538 5541 5544 5548 5552 5556
5583 5579 5576 5573 5569 5566 5562 5559 5555 5552 5548 5545 5542 5538 5535 5532 5529 5527 5524 5522 5520 5517 5516 5516 5513 5512 5511 5511 5510 5510 5511 5513 5516 5519 5522 5526 5530 5535
5572 5568 5565 5561 5557 5554 5550 5547 5542 5539 5535 5531 5528 5524 5519 5516 5513 5510 5507 5505 5503 5499 5497 5496 5494 5492 5491 5490 5489 5488 5489 5491 5493 5496 5499 5503 5507 5512
5560 5556 5553 5549 5545 5541 5538 5534 5530 5525 5521 5516 5512 5508 5504 5499 5496 5493 5490 5487 5485 5481 5477 5476 5474 5472 5471 5469 5467 5467 5467 5469 5470 5472 5476 5479 5484 5488
5549 5545 5541 5537 5533 5528 5524 5520 5516 5511 5507 5502 5497 5492 5488 5483 5478 5475 5471 5468 5465 5463 5459 5456 5453 5451 5451 5449 5447 5445 5445 5446 5448 5451 5454 5457 5460 5465
5537 5532 5528 5524 5519 5515 5511 5506 5502 5497 5492 5487 5482 5477 5471 5467 5462 5457 5453 5449 5446 5443 5439 5436 5433 5430 5428 5429 5427 5425 5424 5425 5427 5429 5432 5435 5439 5443
5525 5520 5516 5511 5506 5502 5497 5492 5487 5482 5477 5472 5467 5461 5456 5450 5445 5440 5435 5431 5427 5423 5419 5416 5413 5410 5408 5407 5407 5406 5404 5404 5406 5408 5411 5415 5418 5422
5513 5508 5503 5498 5494 5489 5483 5478 5473 5468 5463 5457 5452 5446 5440 5434 5428 5423 5418 5413 5409 5405 5401 5397 5394 5391 5388 5387 5387 5386 5385 5386 5386 5388 5391 5394 5398 5403
5500 5496 5491 5486 5481 5476 5470 5465 5460 5454 5448 5443 5436 5430 5424 5418 5412 5407 5402 5397 5393 5388 5383 5379 5375 5372 5370 5368 5367 5367 5366 5367 5368 5369 5372 5375 5379 5384
5488 5484 5479 5474 5468 5463 5458 5452 5446 5440 5434 5428 5422 5416 5409 5403 5398 5392 5387 5381 5376 5372 5367 5362 5358 5354 5352 5350 5350 5349 5348 5349 5351 5352 5355 5359 5363 5367
5476 5471 5466 5461 5456 5451 5445 5439 5433 5427 5421 5414 5407 5401 5395 5389 5383 5377 5372 5366 5361 5356 5351 5346 5342 5339 5337 5335 5334 5333 5333 5334 5335 5337 5339 5343 5348 5352
5464 5459 5454 5449 5444 5439 5433 5427 5421 5414 5407 5401 5394 5388 5382 5376 5369 5364 5358 5352 5347 5342 5336 5331 5327 5324 5323 5322 5321 5318 5319 5320 5321 5323 5325 5329 5333 5338
5452 5447 5442 5437 5432 5427 5421 5415 5409 5402 5395 5389 5382 5376 5369 5363 5357 5351 5345 5339 5334 5328 5323 5318 5314 5311 5309 5308 5307 5306 5305 5306 5308 5311 5313 5316 5320 5324
5440 5436 5431 5426 5421 5415 5409 5403 5397 5391 5384 5377 5371 5365 5358 5352 5346 5339 5334 5328 5322 5317 5313 5308 5304 5300 5297 5296 5295 5296 5295 5294 5296 5298 5301 5304 5308 5311
5428 5424 5419 5414 5409 5404 5398 5392 5386 5380 5373 5367 5361 5354 5348 5341 5335 5329 5324 5318 5313 5308 5303 5299 5294 5291 5288 5286 5286 5286 5285 5285 5285 5287 5289 5292 5295 5300
5417 5413 5408 5403 5398 5392 5387 5381 5375 5369 5363 5357 5351 5344 5338 5332 5326 5320 5314 5309 5304 5299 5295 5291 5287 5283 5280 5278 5277 5277 5276 5276 5276 5278 5281 5283 5285 5288
Wind_Speed
36 37 38 39 40 40 41 42 42 42 43 44 45 46 47 48 49 49 49 50 51 52 52 53 53 54 55 55 55 54 55 54 53 53 52 51 51 50
36 37 38 38 39 39 41 42 42 43 43 44 46 47 47 48 49 50 51 52 52 52 53 54 54 54 55 56 56 56 56 55 55 55 54 53 53 52
37 37 38 38 39 40 40 41 42 43 43 44 46 47 48 48 49 50 51 53 53 53 52 53 54 55 57 56 56 57 57 58 58 57 56 56 54 53
37 37 38 39 40 40 40 41 42 43 44 45 46 47 47 48 49 50 51 52 53 53 53 53 53 53 54 56 58 59 60 59 60 60 59 58 57 56
37 38 38 39 39 40 41 41 41 42 43 44 45 46 46 47 48 49 50 51 51 52 53 54 54 54 54 55 57 59 60 60 60 60 60 60 60 59
38 38 38 38 38 39 40 41 41 42 43 44 45 46 47 47 47 48 48 49 50 51 52 54 55 56 57 57 58 59 60 61 61 61 61 61 61 62
39 39 39 39 39 39 39 40 41 42 43 45 46 47 48 48 48 49 49 50 51 51 52 53 55 56 58 59 59 60 61 62 62 62 63 63 63 63
39 39 40 40 41 41 41 41 42 43 44 45 46 47 48 49 50 50 50 51 52 53 53 55 56 57 58 59 60 61 62 62 62 63 63 64 65 66
39 39 40 41 41 42 42 43 43 44 44 45 46 48 49 50 51 52 52 53 53 55 55 56 57 57 58 60 61 61 62 63 64 64 64 65 66 67
40 40 41 41 42 43 43 44 45 46 46 47 48 49 50 51 52 52 53 54 55 56 57 57 58 58 59 60 60 60 61 62 64 66 66 66 67 68
41 42 42 43 43 44 45 45 46 47 47 48 49 49 50 51 52 53 54 55 55 56 57 58 58 58 59 59 59 59 60 61 62 64 64 64 65 67
42 43 43 44 44 45 45 46 46 47 48 48 49 50 51 52 53 54 55 56 56 56 57 57 57 57 57 57 58 59 60 60 60 61 62 62 63 65
42 43 44 44 45 45 46 46 47 48 48 49 50 51 52 53 54 55 55 56 56 56 56 57 56 56 56 55 55 56 57 58 58 59 59 60 61 62
43 44 44 44 45 46 46 47 47 48 49 49 50 51 52 52 53 54 54 54 54 55 55 55 55 55 55 54 53 54 55 55 56 57 57 58 59 60
43 43 44 44 45 45 46 46 47 48 49 50 50 51 52 52 52 52 52 52 52 52 53 53 53 53 52 52 51 52 52 53 54 54 54 55 56 57
43 43 44 44 45 45 46 46 47 48 48 49 50 50 51 50 50 50 50 50 50 50 51 52 52 51 50 49 49 49 50 50 51 51 51 51 52 54
44 44 44 44 44 44 45 46 46 47 48 49 49 49 49 48 48 49 49 49 49 49 49 49 49 48 47 46 45 45 46 46 47 48 49 49 50 51
43 43 43 43 43 44 44 45 46 47 48 48 48 47 47 47 47 47 47 47 46 46 46 45 45 44 43 42 43 42 42 42 43 44 45 46 47 48
42 42 42 42 43 43 44 45 45 46 46 46 46 45 45 45 45 45 44 44 44 44 43 42 41 40 39 38 39 39 38 38 39 41 42 42 43 46
42 41 41 41 42 43 43 44 44 45 45 44 44 43 43 43 43 42 42 41 41 40 39 38 37 37 36 35 34 34 35 36 36 37 38 39 40 43
40 40 41 41 42 42 43 43 43 43 43 42 41 42 42 41 41 40 39 38 37 36 35 34 33 33 32 31 30 30 31 33 34 35 36 37 37 39
39 40 40 40 41 41 41 42 42 42 41 40 40 40 40 39 38 37 36 35 34 33 32 31 30 29 28 28 27 26 27 29 31 32 33 34 35 36
38 39 39 40 40 40 40 40 40 40 39 39 39 38 38 37 36 35 34 32 31 31 29 28 26 26 25 25 25 24 25 26 28 30 31 31 31 31
Wind_Direction
288 287 285 282 281 281 279 279 278 277 277 274 273 273 272 270 269 269 269 268 266 265 263 261 261 260 259 258 259 258 257 256 256 254 254 254 254 254
290 288 287 285 283 282 281 280 278 277 278 276 275 274 273 272 271 269 268 267 267 266 264 263 262 262 261 260 258 257 257 256 255 253 253 254 253 253
291 290 288 287 285 283 282 281 279 279 279 278 276 275 274 273 272 271 270 268 267 266 264 263 262 262 262 261 259 258 258 257 256 255 254 253 253 252
291 292 291 290 288 285 283 282 280 280 280 279 277 276 275 273 272 271 271 270 269 268 266 264 263 262 262 260 259 258 258 257 256 256 255 254 253 251
291 292 293 292 291 288 286 284 282 281 281 280 279 277 276 275 274 273 272 271 270 269 268 266 265 264 264 262 260 259 258 257 257 255 254 253 253 251
290 291 292 292 292 291 289 287 285 284 283 282 280 278 278 277 276 275 274 272 271 270 270 269 267 266 266 264 263 260 258 257 256 255 254 253 252 251
289 290 291 291 292 291 290 289 287 286 285 284 283 281 280 278 277 276 275 274 273 272 272 271 270 269 268 267 265 262 260 258 257 255 254 252 251 250
291 291 291 291 292 292 291 290 289 288 287 286 284 283 282 280 278 277 276 275 275 274 273 272 271 270 269 267 266 265 262 259 257 255 254 252 250 249
292 292 292 292 292 292 292 292 291 291 290 288 287 285 283 281 280 279 278 276 276 275 274 273 272 271 269 269 268 266 263 261 258 255 254 252 250 249
292 293 293 293 293 293 292 292 292 292 291 290 289 288 286 284 282 281 280 279 278 277 275 274 273 272 271 270 268 265 263 262 260 257 255 253 251 250
293 293 293 293 293 293 293 293 293 292 292 291 290 289 289 287 285 283 281 280 279 278 277 276 274 273 272 271 268 265 263 262 260 258 256 255 252 250
294 294 294 294 294 294 294 294 294 293 293 292 292 291 291 290 288 286 284 282 280 279 278 277 276 275 273 271 268 266 264 262 258 257 256 255 253 251
295 295 295 295 295 296 296 296 295 295 295 294 294 293 292 291 290 288 286 284 283 282 280 279 278 277 275 271 268 266 264 261 258 257 256 254 252 251
295 295 296 296 297 297 297 297 297 297 297 296 296 295 294 293 292 291 289 287 286 284 282 281 280 278 275 271 268 266 263 261 259 257 255 252 251 249
296 297 297 298 298 298 298 298 298 298 298 298 298 297 297 295 294 292 291 290 288 286 284 283 282 280 276 273 269 266 263 261 260 257 254 251 249 247
296 297 298 299 299 299 299 299 300 300 301 301 300 299 299 297 295 294 293 291 290 289 287 285 283 281 277 274 271 267 264 261 259 256 253 250 247 244
297 297 299 300 300 300 301 301 302 303 303 303 302 302 300 299 297 295 294 293 292 291 289 286 284 281 278 275 272 268 265 260 257 255 253 250 247 244
296 297 299 300 301 302 302 303 304 305 305 305 304 303 302 300 299 298 296 295 294 293 292 289 285 281 277 275 273 269 264 259 256 254 251 247 244 242
296 297 299 300 301 303 304 305 306 306 307 306 306 305 304 303 302 300 298 297 296 295 293 290 286 282 278 275 272 268 263 258 255 252 249 246 243 240
297 298 299 300 302 303 305 306 307 308 308 308 307 306 306 305 304 302 301 300 299 297 295 292 289 284 279 276 272 266 261 258 254 251 249 246 244 240
297 298 299 301 302 304 305 306 307 308 309 309 308 308 308 307 306 305 304 303 302 301 298 295 292 288 282 278 273 266 263 259 255 251 248 246 243 241
297 299 300 302 303 304 305 306 308 308 309 309 309 309 309 309 308 307 306 304 304 303 301 298 295 292 286 280 275 270 266 262 257 252 250 247 245 241
298 300 301 303 303 304 305 307 308 308 309 310 310 310 310 310 309 308 307 306 305 303 301 299 296 293 290 284 278 273 268 263 257 252 249 248 246 241